TimeEST,TemperatureF,Dew PointF,Humidity,Sea Level PressureIn,VisibilityMPH,Wind Direction,Wind SpeedMPH,Gust SpeedMPH,PrecipitationIn,Events,Conditions,WindDirDegrees,DateUTC
12:20 AM,41.0,41.0,100,30.21,4.0,Calm,Calm,-,N/A,,Clear,0,2013-12-20 05:20:00
12:35 AM,41.0,41.0,100,30.21,7.0,Calm,Calm,-,N/A,,Clear,0,2013-12-20 05:35:00
12:53 AM,43.0,41.0,93,30.19,-9999.0,Calm,Calm,-,N/A,,Unknown,0,2013-12-20 05:53:00
12:55 AM,42.8,41.0,93,30.21,3.0,Calm,Calm,-,N/A,,Clear,0,2013-12-20 05:55:00
1:15 AM,42.8,42.8,100,30.20,10.0,Calm,Calm,-,N/A,,Clear,0,2013-12-20 06:15:00
1:35 AM,41.0,41.0,100,30.20,10.0,Calm,Calm,-,N/A,,Clear,0,2013-12-20 06:35:00
1:53 AM,43.0,39.9,89,30.19,-9999.0,Calm,Calm,-,N/A,,Unknown,0,2013-12-20 06:53:00
1:55 AM,42.8,41.0,93,30.20,5.0,Calm,Calm,-,N/A,,Clear,0,2013-12-20 06:55:00
2:15 AM,42.8,41.0,93,30.20,10.0,Calm,Calm,-,N/A,,Clear,0,2013-12-20 07:15:00
2:35 AM,42.8,41.0,93,30.19,10.0,Calm,Calm,-,N/A,,Clear,0,2013-12-20 07:35:00
2:53 AM,43.0,39.9,89,30.18,-9999.0,Calm,Calm,-,N/A,,Unknown,0,2013-12-20 07:53:00
2:55 AM,41.0,41.0,100,30.19,7.0,Calm,Calm,-,N/A,,Clear,0,2013-12-20 07:55:00
3:15 AM,42.8,41.0,93,30.19,7.0,Calm,Calm,-,N/A,,Clear,0,2013-12-20 08:15:00
3:35 AM,42.8,42.8,100,30.19,10.0,Calm,Calm,-,N/A,,Clear,0,2013-12-20 08:35:00
3:53 AM,45.0,42.1,90,30.19,-9999.0,Calm,Calm,-,N/A,,Unknown,0,2013-12-20 08:53:00
3:55 AM,44.6,42.8,93,30.20,10.0,East,3.5,-,N/A,,Clear,100,2013-12-20 08:55:00
4:15 AM,42.8,42.8,100,30.20,7.0,Calm,Calm,-,N/A,,Clear,0,2013-12-20 09:15:00
4:35 AM,42.8,42.8,100,30.19,5.0,ESE,4.6,-,N/A,,Clear,110,2013-12-20 09:35:00
4:53 AM,51.1,48.0,89,30.18,-9999.0,ESE,5.8,-,N/A,,Unknown,110,2013-12-20 09:53:00
4:55 AM,50.0,48.2,94,30.19,10.0,ESE,4.6,-,N/A,,Clear,110,2013-12-20 09:55:00
5:15 AM,50.0,48.2,94,30.18,5.0,ESE,4.6,-,N/A,,Clear,110,2013-12-20 10:15:00
5:35 AM,48.2,48.2,100,30.19,5.0,Calm,Calm,-,N/A,,Clear,0,2013-12-20 10:35:00
5:53 AM,51.1,48.9,92,30.18,-9999.0,ESE,4.6,-,N/A,,Unknown,110,2013-12-20 10:53:00
5:55 AM,50.0,50.0,100,30.19,7.0,ESE,5.8,-,N/A,,Clear,110,2013-12-20 10:55:00
6:15 AM,48.2,46.4,93,30.19,4.0,ESE,4.6,-,N/A,,Clear,110,2013-12-20 11:15:00
6:35 AM,50.0,50.0,100,30.19,10.0,ESE,6.9,-,N/A,,Clear,120,2013-12-20 11:35:00
6:53 AM,52.0,48.9,89,30.18,-9999.0,ESE,4.6,-,N/A,,Unknown,110,2013-12-20 11:53:00
6:55 AM,50.0,50.0,100,30.19,10.0,ESE,5.8,-,N/A,,Clear,110,2013-12-20 11:55:00
7:15 AM,50.0,48.2,94,30.20,10.0,ESE,4.6,-,N/A,,Clear,120,2013-12-20 12:15:00
7:35 AM,50.0,50.0,100,30.20,10.0,ESE,5.8,-,N/A,,Clear,120,2013-12-20 12:35:00
7:53 AM,53.1,50.0,89,30.19,-9999.0,ESE,5.8,-,0.01,,Unknown,120,2013-12-20 12:53:00
7:55 AM,51.8,51.8,100,30.20,10.0,ESE,4.6,-,N/A,,Clear,120,2013-12-20 12:55:00
8:15 AM,51.8,51.8,100,30.20,10.0,SE,6.9,-,N/A,,Clear,130,2013-12-20 13:15:00
8:35 AM,53.6,53.6,100,30.20,10.0,ESE,9.2,-,N/A,,Clear,120,2013-12-20 13:35:00
8:53 AM,59.0,53.1,81,30.19,-9999.0,ESE,8.1,-,0.01,,Unknown,120,2013-12-20 13:53:00
8:55 AM,57.2,53.6,88,30.20,10.0,SE,6.9,-,N/A,,Clear,130,2013-12-20 13:55:00
9:15 AM,59.0,53.6,82,30.21,10.0,SE,5.8,-,N/A,,Clear,140,2013-12-20 14:15:00
9:35 AM,62.6,55.4,77,30.21,10.0,SE,5.8,-,N/A,,Clear,140,2013-12-20 14:35:00
9:53 AM,66.0,55.0,68,30.20,-9999.0,SE,8.1,-,0.01,,Unknown,130,2013-12-20 14:53:00
9:55 AM,64.4,55.4,73,30.21,10.0,SE,8.1,-,N/A,,Clear,130,2013-12-20 14:55:00
10:15 AM,68.0,55.4,64,30.22,10.0,SE,8.1,-,N/A,,Clear,140,2013-12-20 15:15:00
10:35 AM,69.8,55.4,60,30.22,10.0,SSE,5.8,-,N/A,,Clear,150,2013-12-20 15:35:00
10:53 AM,73.0,57.0,57,30.21,-9999.0,SE,9.2,-,0.02,,Unknown,140,2013-12-20 15:53:00
10:55 AM,71.6,57.2,60,30.22,10.0,SE,8.1,-,N/A,,Clear,140,2013-12-20 15:55:00
11:15 AM,71.6,57.2,60,30.21,10.0,SE,8.1,-,N/A,,Clear,140,2013-12-20 16:15:00
11:35 AM,73.4,57.2,57,30.21,10.0,SSE,5.8,-,N/A,,Scattered Clouds,150,2013-12-20 16:35:00
11:53 AM,75.9,57.9,54,30.19,-9999.0,SE,8.1,-,0.02,,Unknown,140,2013-12-20 16:53:00
11:55 AM,73.4,59.0,61,30.20,10.0,SE,6.9,-,N/A,,Clear,140,2013-12-20 16:55:00
12:15 PM,75.2,59.0,57,30.19,10.0,South,6.9,-,N/A,,Clear,180,2013-12-20 17:15:00
12:35 PM,77.0,59.0,54,30.18,10.0,South,6.9,-,N/A,,Clear,170,2013-12-20 17:35:00
12:53 PM,78.1,59.0,52,30.16,-9999.0,South,11.5,-,N/A,,Unknown,180,2013-12-20 17:53:00
12:55 PM,77.0,59.0,54,30.17,10.0,South,9.2,-,N/A,,Scattered Clouds,180,2013-12-20 17:55:00
1:15 PM,77.0,59.0,54,30.16,10.0,SSW,9.2,-,N/A,,Scattered Clouds,210,2013-12-20 18:15:00
1:35 PM,78.8,57.2,47,30.15,10.0,South,9.2,-,N/A,,Scattered Clouds,190,2013-12-20 18:35:00
1:53 PM,79.0,59.0,50,30.13,-9999.0,SSW,10.4,-,N/A,,Unknown,200,2013-12-20 18:53:00
1:55 PM,78.8,59.0,51,30.14,10.0,SSW,10.4,16.1,N/A,,Scattered Clouds,200,2013-12-20 18:55:00
2:15 PM,78.8,59.0,51,30.14,10.0,South,8.1,-,N/A,,Scattered Clouds,180,2013-12-20 19:15:00
2:35 PM,77.0,59.0,54,30.14,10.0,SSW,10.4,-,N/A,,Scattered Clouds,210,2013-12-20 19:35:00
2:53 PM,79.0,59.0,50,30.13,-9999.0,South,10.4,-,N/A,,Unknown,180,2013-12-20 19:53:00
2:55 PM,77.0,59.0,54,30.15,10.0,SSW,10.4,-,N/A,,Mostly Cloudy,200,2013-12-20 19:55:00
3:15 PM,78.8,59.0,51,30.15,10.0,South,11.5,-,N/A,,Scattered Clouds,190,2013-12-20 20:15:00
3:35 PM,77.0,60.8,57,30.15,10.0,South,9.2,-,N/A,,Scattered Clouds,190,2013-12-20 20:35:00
3:53 PM,75.9,60.1,58,30.14,-9999.0,South,6.9,-,N/A,,Unknown,180,2013-12-20 20:53:00
3:55 PM,75.2,60.8,61,30.15,10.0,SSW,5.8,-,N/A,,Clear,200,2013-12-20 20:55:00
4:15 PM,75.2,60.8,61,30.15,10.0,SSW,6.9,-,N/A,,Scattered Clouds,200,2013-12-20 21:15:00
4:35 PM,73.4,60.8,65,30.15,10.0,SSW,5.8,-,N/A,,Clear,200,2013-12-20 21:35:00
4:53 PM,73.9,60.1,62,30.14,-9999.0,South,5.8,-,N/A,,Unknown,170,2013-12-20 21:53:00
4:55 PM,73.4,60.8,65,30.15,10.0,South,4.6,-,N/A,,Clear,180,2013-12-20 21:55:00
5:15 PM,71.6,60.8,69,30.15,10.0,South,3.5,-,N/A,,Scattered Clouds,170,2013-12-20 22:15:00
5:35 PM,69.8,60.8,73,30.15,10.0,Calm,Calm,-,N/A,,Clear,0,2013-12-20 22:35:00
5:53 PM,66.0,59.0,78,30.14,-9999.0,Calm,Calm,-,N/A,,Unknown,0,2013-12-20 22:53:00
5:55 PM,64.4,59.0,83,30.15,10.0,Calm,Calm,-,N/A,,Clear,0,2013-12-20 22:55:00
6:15 PM,64.4,59.0,83,30.16,10.0,Calm,Calm,-,N/A,,Clear,0,2013-12-20 23:15:00
6:35 PM,62.6,59.0,88,30.16,10.0,Calm,Calm,-,N/A,,Clear,0,2013-12-20 23:35:00
6:53 PM,62.1,57.9,86,30.15,-9999.0,Calm,Calm,-,N/A,,Unknown,0,2013-12-20 23:53:00
6:55 PM,60.8,59.0,94,30.16,7.0,Calm,Calm,-,N/A,,Clear,0,2013-12-20 23:55:00
7:15 PM,60.8,59.0,94,30.16,10.0,Calm,Calm,-,N/A,,Scattered Clouds,0,2013-12-21 00:15:00
7:35 PM,60.8,59.0,94,30.15,10.0,Calm,Calm,-,N/A,,Scattered Clouds,0,2013-12-21 00:35:00
7:53 PM,61.0,57.0,87,30.14,-9999.0,Calm,Calm,-,N/A,,Unknown,0,2013-12-21 00:53:00
7:55 PM,59.0,57.2,94,30.16,10.0,Calm,Calm,-,N/A,,Scattered Clouds,0,2013-12-21 00:55:00
8:15 PM,60.8,59.0,94,30.16,10.0,Calm,Calm,-,N/A,,Mostly Cloudy,0,2013-12-21 01:15:00
8:35 PM,60.8,59.0,94,30.15,10.0,Calm,Calm,-,N/A,,Scattered Clouds,0,2013-12-21 01:35:00
8:53 PM,61.0,57.0,87,30.14,-9999.0,Calm,Calm,-,N/A,,Unknown,0,2013-12-21 01:53:00
8:55 PM,60.8,59.0,94,30.15,10.0,East,3.5,-,N/A,,Clear,100,2013-12-21 01:55:00
9:15 PM,60.8,59.0,94,30.15,10.0,Calm,Calm,-,N/A,,Clear,0,2013-12-21 02:15:00
9:35 PM,59.0,57.2,94,30.15,10.0,Calm,Calm,-,N/A,,Clear,0,2013-12-21 02:35:00
9:53 PM,60.1,57.0,90,30.14,-9999.0,East,3.5,-,N/A,,Unknown,100,2013-12-21 02:53:00
9:55 PM,60.8,59.0,94,30.15,10.0,ESE,3.5,-,N/A,,Clear,110,2013-12-21 02:55:00
10:15 PM,60.8,59.0,94,30.14,10.0,ESE,4.6,-,N/A,,Scattered Clouds,110,2013-12-21 03:15:00
10:35 PM,62.6,60.8,94,30.14,10.0,ESE,4.6,-,N/A,,Clear,120,2013-12-21 03:35:00
10:53 PM,66.0,60.1,81,30.14,-9999.0,East,3.5,-,N/A,,Unknown,100,2013-12-21 03:53:00
10:55 PM,64.4,60.8,88,30.15,10.0,ESE,3.5,-,N/A,,Scattered Clouds,110,2013-12-21 03:55:00
11:15 PM,64.4,60.8,88,30.14,10.0,Calm,Calm,-,N/A,,Scattered Clouds,0,2013-12-21 04:15:00
11:35 PM,62.6,59.0,88,30.14,10.0,ESE,4.6,-,N/A,,Clear,110,2013-12-21 04:35:00
11:53 PM,66.9,59.0,76,30.12,-9999.0,ESE,4.6,-,N/A,,Unknown,110,2013-12-21 04:53:00
11:55 PM,64.4,59.0,83,30.14,10.0,ESE,4.6,-,N/A,,Clear,110,2013-12-21 04:55:00